Year,Month,Day,Hour,Minute,Value (Times are PST for temperature in C)
2015,06,27,00,00,18.30
2015,06,27,00,01,18.20
2015,06,27,00,02,18.20
2015,06,27,00,03,18.20
2015,06,27,00,04,18.20
2015,06,27,00,05,18.20
2015,06,27,00,06,18.20
2015,06,27,00,07,18.20
2015,06,27,00,08,18.20
2015,06,27,00,09,18.20
2015,06,27,00,10,18.20
2015,06,27,00,11,18.20
2015,06,27,00,12,18.20
2015,06,27,00,13,18.20
2015,06,27,00,14,18.20
2015,06,27,00,15,18.10
2015,06,27,00,16,18.10
2015,06,27,00,17,18.10
2015,06,27,00,18,18.10
2015,06,27,00,19,18.10
2015,06,27,00,20,18.10
2015,06,27,00,21,18.10
2015,06,27,00,22,18.10
2015,06,27,00,23,18.10
2015,06,27,00,24,18.10
2015,06,27,00,25,18.10
2015,06,27,00,26,18.00
2015,06,27,00,27,17.90
2015,06,27,00,28,17.90
2015,06,27,00,29,17.90
2015,06,27,00,30,17.90
2015,06,27,00,31,17.90
2015,06,27,00,32,17.90
2015,06,27,00,33,17.90
2015,06,27,00,34,17.90
2015,06,27,00,35,17.90
2015,06,27,00,36,17.90
2015,06,27,00,37,17.90
2015,06,27,00,38,17.90
2015,06,27,00,39,17.90
2015,06,27,00,40,17.90
2015,06,27,00,41,17.90
2015,06,27,00,42,17.90
2015,06,27,00,43,17.90
2015,06,27,00,44,17.90
2015,06,27,00,45,17.90
2015,06,27,00,46,17.90
2015,06,27,00,47,17.90
2015,06,27,00,48,17.80
2015,06,27,00,49,17.80
2015,06,27,00,50,17.80
2015,06,27,00,51,17.80
2015,06,27,00,52,17.80
2015,06,27,00,53,17.70
2015,06,27,00,54,17.70
2015,06,27,00,55,17.70
2015,06,27,00,56,17.70
2015,06,27,00,57,17.70
2015,06,27,00,58,17.70
2015,06,27,00,59,17.70
2015,06,27,01,00,17.70
2015,06,27,01,01,17.60
2015,06,27,01,02,17.60
2015,06,27,01,03,17.60
2015,06,27,01,04,17.60
2015,06,27,01,05,17.50
2015,06,27,01,06,17.50
2015,06,27,01,07,17.50
2015,06,27,01,08,17.50
2015,06,27,01,09,17.50
2015,06,27,01,10,17.50
2015,06,27,01,11,17.50
2015,06,27,01,12,17.50
2015,06,27,01,13,17.50
2015,06,27,01,14,17.50
2015,06,27,01,15,17.50
2015,06,27,01,16,17.50
2015,06,27,01,17,17.50
2015,06,27,01,18,17.50
2015,06,27,01,19,17.50
2015,06,27,01,20,17.40
2015,06,27,01,21,17.40
2015,06,27,01,22,17.30
2015,06,27,01,23,17.30
2015,06,27,01,24,17.30
2015,06,27,01,25,17.30
2015,06,27,01,26,17.30
2015,06,27,01,27,17.30
2015,06,27,01,28,17.30
2015,06,27,01,29,17.30
2015,06,27,01,30,17.20
2015,06,27,01,31,17.20
2015,06,27,01,32,17.20
2015,06,27,01,33,17.10
2015,06,27,01,34,17.10
2015,06,27,01,35,17.10
2015,06,27,01,36,17.10
2015,06,27,01,37,17.00
2015,06,27,01,38,17.00
2015,06,27,01,39,17.00
2015,06,27,01,40,17.00
2015,06,27,01,41,17.00
2015,06,27,01,42,17.00
2015,06,27,01,43,17.00
2015,06,27,01,44,17.00
2015,06,27,01,45,17.10
2015,06,27,01,46,17.10
2015,06,27,01,47,17.10
2015,06,27,01,48,17.10
2015,06,27,01,49,17.10
2015,06,27,01,50,17.10
2015,06,27,01,51,17.00
2015,06,27,01,52,17.00
2015,06,27,01,53,17.00
2015,06,27,01,54,17.00
2015,06,27,01,55,17.00
2015,06,27,01,56,17.00
2015,06,27,01,57,17.00
2015,06,27,01,58,17.00
2015,06,27,01,59,17.00
2015,06,27,02,00,16.90
2015,06,27,02,01,16.90
2015,06,27,02,02,16.90
2015,06,27,02,03,16.90
2015,06,27,02,04,16.80
2015,06,27,02,05,16.80
2015,06,27,02,06,16.80
2015,06,27,02,07,16.70
2015,06,27,02,08,16.70
2015,06,27,02,09,16.70
2015,06,27,02,10,16.70
2015,06,27,02,11,16.70
2015,06,27,02,12,16.70
2015,06,27,02,13,16.70
2015,06,27,02,14,16.70
2015,06,27,02,15,16.70
2015,06,27,02,16,16.70
2015,06,27,02,17,16.70
2015,06,27,02,18,16.70
2015,06,27,02,19,16.70
2015,06,27,02,20,16.70
2015,06,27,02,21,16.70
2015,06,27,02,22,16.70
2015,06,27,02,23,16.70
2015,06,27,02,24,16.70
2015,06,27,02,25,16.70
2015,06,27,02,26,16.60
2015,06,27,02,27,16.60
2015,06,27,02,28,16.60
2015,06,27,02,29,16.60
2015,06,27,02,30,16.60
2015,06,27,02,31,16.60
2015,06,27,02,32,16.50
2015,06,27,02,33,16.40
2015,06,27,02,34,16.40
2015,06,27,02,35,16.40
2015,06,27,02,36,16.40
2015,06,27,02,37,16.40
2015,06,27,02,38,16.40
2015,06,27,02,39,16.40
2015,06,27,02,40,16.40
2015,06,27,02,41,16.40
2015,06,27,02,42,16.40
2015,06,27,02,43,16.40
2015,06,27,02,44,16.30
2015,06,27,02,45,16.30
2015,06,27,02,46,16.30
2015,06,27,02,47,16.30
2015,06,27,02,48,16.30
2015,06,27,02,49,16.30
2015,06,27,02,50,16.30
2015,06,27,02,51,16.30
2015,06,27,02,52,16.30
2015,06,27,02,53,16.30
2015,06,27,02,54,16.30
2015,06,27,02,55,16.30
2015,06,27,02,56,16.30
2015,06,27,02,57,16.30
2015,06,27,02,58,16.30
2015,06,27,02,59,16.30
2015,06,27,03,00,16.30
2015,06,27,03,01,16.30
2015,06,27,03,02,16.40
2015,06,27,03,03,16.40
2015,06,27,03,04,16.40
2015,06,27,03,05,16.30
2015,06,27,03,06,16.30
2015,06,27,03,07,16.30
2015,06,27,03,08,16.20
2015,06,27,03,09,16.20
2015,06,27,03,10,16.20
2015,06,27,03,11,16.20
2015,06,27,03,12,16.20
2015,06,27,03,13,16.20
2015,06,27,03,14,16.20
2015,06,27,03,15,16.20
2015,06,27,03,16,16.20
2015,06,27,03,17,16.20
2015,06,27,03,18,16.10
2015,06,27,03,19,16.10
2015,06,27,03,20,16.10
2015,06,27,03,21,16.10
2015,06,27,03,22,16.10
2015,06,27,03,23,16.10
2015,06,27,03,24,16.10
2015,06,27,03,25,16.10
2015,06,27,03,26,16.10
2015,06,27,03,27,16.10
2015,06,27,03,28,16.10
2015,06,27,03,29,16.10
2015,06,27,03,30,16.10
2015,06,27,03,31,16.10
2015,06,27,03,32,16.10
2015,06,27,03,33,16.10
2015,06,27,03,34,16.00
2015,06,27,03,35,15.90
2015,06,27,03,36,15.90
2015,06,27,03,37,15.90
2015,06,27,03,38,15.90
2015,06,27,03,39,15.80
2015,06,27,03,40,15.80
2015,06,27,03,41,15.80
2015,06,27,03,42,15.80
2015,06,27,03,43,15.80
2015,06,27,03,44,15.80
2015,06,27,03,45,15.80
2015,06,27,03,46,15.80
2015,06,27,03,47,15.80
2015,06,27,03,48,15.80
2015,06,27,03,49,15.80
2015,06,27,03,50,15.80
2015,06,27,03,51,15.80
2015,06,27,03,52,15.80
2015,06,27,03,53,15.80
2015,06,27,03,54,15.80
2015,06,27,03,55,15.80
2015,06,27,03,56,15.80
2015,06,27,03,57,15.80
2015,06,27,03,58,15.80
2015,06,27,03,59,15.80
2015,06,27,04,00,15.80
2015,06,27,04,01,15.80
2015,06,27,04,02,15.80
2015,06,27,04,03,15.80
2015,06,27,04,04,15.80
2015,06,27,04,05,15.80
2015,06,27,04,06,15.70
2015,06,27,04,07,15.70
2015,06,27,04,08,15.70
2015,06,27,04,09,15.70
2015,06,27,04,10,15.60
2015,06,27,04,11,15.60
2015,06,27,04,12,15.60
2015,06,27,04,13,15.60
2015,06,27,04,14,15.50
2015,06,27,04,15,15.50
2015,06,27,04,16,15.50
2015,06,27,04,17,15.50
2015,06,27,04,18,15.50
2015,06,27,04,19,15.50
2015,06,27,04,20,15.50
2015,06,27,04,21,15.50
2015,06,27,04,22,15.50
2015,06,27,04,23,15.50
2015,06,27,04,24,15.50
2015,06,27,04,25,15.50
2015,06,27,04,26,15.50
2015,06,27,04,27,15.40
2015,06,27,04,28,15.40
2015,06,27,04,29,15.40
2015,06,27,04,30,15.40
2015,06,27,04,31,15.40
2015,06,27,04,32,15.40
2015,06,27,04,33,15.30
2015,06,27,04,34,15.30
2015,06,27,04,35,15.30
2015,06,27,04,36,15.30
2015,06,27,04,37,15.30
2015,06,27,04,38,15.30
2015,06,27,04,39,15.30
2015,06,27,04,40,15.30
2015,06,27,04,41,15.30
2015,06,27,04,42,15.30
2015,06,27,04,43,15.30
2015,06,27,04,44,15.30
2015,06,27,04,45,15.30
2015,06,27,04,46,15.30
2015,06,27,04,47,15.30
2015,06,27,04,48,15.30
2015,06,27,04,49,15.30
2015,06,27,04,50,15.30
2015,06,27,04,51,15.30
2015,06,27,04,52,15.30
2015,06,27,04,53,15.30
2015,06,27,04,54,15.30
2015,06,27,04,55,15.30
2015,06,27,04,56,15.30
2015,06,27,04,57,15.30
2015,06,27,04,58,15.30
2015,06,27,04,59,15.30
2015,06,27,05,00,15.30
2015,06,27,05,01,15.30
2015,06,27,05,02,15.30
2015,06,27,05,03,15.20
2015,06,27,05,04,15.20
2015,06,27,05,05,15.20
2015,06,27,05,06,15.20
2015,06,27,05,07,15.20
2015,06,27,05,08,15.20
2015,06,27,05,09,15.10
2015,06,27,05,10,15.10
2015,06,27,05,11,15.10
2015,06,27,05,12,15.10
2015,06,27,05,13,15.10
2015,06,27,05,14,15.10
2015,06,27,05,15,15.10
2015,06,27,05,16,15.10
2015,06,27,05,17,15.10
2015,06,27,05,18,15.10
2015,06,27,05,19,15.10
2015,06,27,05,20,15.10
2015,06,27,05,21,15.10
2015,06,27,05,22,15.10
2015,06,27,05,23,15.00
2015,06,27,05,24,15.00
2015,06,27,05,25,15.00
2015,06,27,05,26,15.00
2015,06,27,05,27,15.00
2015,06,27,05,28,15.00
2015,06,27,05,29,15.00
2015,06,27,05,30,15.10
2015,06,27,05,31,15.00
2015,06,27,05,32,15.00
2015,06,27,05,33,15.00
2015,06,27,05,34,15.00
2015,06,27,05,35,15.00
2015,06,27,05,36,15.00
2015,06,27,05,37,15.00
2015,06,27,05,38,15.00
2015,06,27,05,39,15.00
2015,06,27,05,40,15.00
2015,06,27,05,41,15.00
2015,06,27,05,42,15.00
2015,06,27,05,43,15.00
2015,06,27,05,44,14.90
2015,06,27,05,45,14.90
2015,06,27,05,46,14.90
2015,06,27,05,47,14.90
2015,06,27,05,48,14.90
2015,06,27,05,49,14.90
2015,06,27,05,50,14.90
2015,06,27,05,51,14.90
2015,06,27,05,52,14.90
2015,06,27,05,53,14.90
2015,06,27,05,54,14.90
2015,06,27,05,55,14.90
2015,06,27,05,56,14.90
2015,06,27,05,57,14.90
2015,06,27,05,58,14.90
2015,06,27,05,59,14.90
2015,06,27,06,00,14.90
2015,06,27,06,01,15.00
2015,06,27,06,02,15.00
2015,06,27,06,03,15.00
2015,06,27,06,04,15.10
2015,06,27,06,05,15.10
2015,06,27,06,06,15.20
2015,06,27,06,07,15.20
2015,06,27,06,08,15.30
2015,06,27,06,09,15.30
2015,06,27,06,10,15.30
2015,06,27,06,11,15.30
2015,06,27,06,12,15.40
2015,06,27,06,13,15.40
2015,06,27,06,14,15.30
2015,06,27,06,15,15.30
2015,06,27,06,16,15.30
2015,06,27,06,17,15.30
2015,06,27,06,18,15.40
2015,06,27,06,19,15.40
2015,06,27,06,20,15.40
2015,06,27,06,21,15.50
2015,06,27,06,22,15.50
2015,06,27,06,23,15.50
2015,06,27,06,24,15.60
2015,06,27,06,25,15.60
2015,06,27,06,26,15.70
2015,06,27,06,27,15.80
2015,06,27,06,28,15.90
2015,06,27,06,29,16.00
2015,06,27,06,30,16.10
2015,06,27,06,31,16.10
2015,06,27,06,32,16.20
2015,06,27,06,33,16.30
2015,06,27,06,34,16.40
2015,06,27,06,35,16.40
2015,06,27,06,36,16.50
2015,06,27,06,37,16.60
2015,06,27,06,38,16.70
2015,06,27,06,39,16.80
2015,06,27,06,40,16.90
2015,06,27,06,41,17.00
2015,06,27,06,42,17.00
2015,06,27,06,43,17.10
2015,06,27,06,44,17.20
2015,06,27,06,45,17.30
2015,06,27,06,46,17.30
2015,06,27,06,47,17.30
2015,06,27,06,48,17.30
2015,06,27,06,49,17.40
2015,06,27,06,50,17.40
2015,06,27,06,51,17.50
2015,06,27,06,52,17.60
2015,06,27,06,53,17.70
2015,06,27,06,54,17.80
2015,06,27,06,55,17.80
2015,06,27,06,56,17.90
2015,06,27,06,57,18.00
2015,06,27,06,58,18.10
2015,06,27,06,59,18.20
2015,06,27,07,00,18.20
2015,06,27,07,01,18.20
2015,06,27,07,02,18.20
2015,06,27,07,03,18.20
2015,06,27,07,04,18.20
2015,06,27,07,05,18.20
2015,06,27,07,06,18.20
2015,06,27,07,07,18.20
2015,06,27,07,08,18.30
2015,06,27,07,09,18.30
2015,06,27,07,10,18.40
2015,06,27,07,11,18.40
2015,06,27,07,12,18.50
2015,06,27,07,13,18.60
2015,06,27,07,14,18.60
2015,06,27,07,15,18.80
2015,06,27,07,16,18.90
2015,06,27,07,17,18.90
2015,06,27,07,18,19.00
2015,06,27,07,19,19.10
2015,06,27,07,20,19.10
2015,06,27,07,21,19.20
2015,06,27,07,22,19.20
2015,06,27,07,23,19.30
2015,06,27,07,24,19.30
2015,06,27,07,25,19.40
2015,06,27,07,26,19.50
2015,06,27,07,27,19.70
2015,06,27,07,28,19.80
2015,06,27,07,29,19.90
2015,06,27,07,30,20.00
2015,06,27,07,31,20.10
2015,06,27,07,32,20.20
2015,06,27,07,33,20.20
2015,06,27,07,34,20.30
2015,06,27,07,35,20.40
2015,06,27,07,36,20.50
2015,06,27,07,37,20.50
2015,06,27,07,38,20.60
2015,06,27,07,39,20.60
2015,06,27,07,40,20.60
2015,06,27,07,41,20.60
2015,06,27,07,42,20.60
2015,06,27,07,43,20.70
2015,06,27,07,44,20.80
2015,06,27,07,45,20.80
2015,06,27,07,46,20.90
2015,06,27,07,47,21.00
2015,06,27,07,48,21.10
2015,06,27,07,49,21.20
2015,06,27,07,50,21.30
2015,06,27,07,51,21.30
2015,06,27,07,52,21.40
2015,06,27,07,53,21.60
2015,06,27,07,54,21.60
2015,06,27,07,55,21.70
2015,06,27,07,56,21.80
2015,06,27,07,57,21.90
2015,06,27,07,58,22.00
2015,06,27,07,59,22.00
2015,06,27,08,00,22.10
2015,06,27,08,01,22.20
2015,06,27,08,02,22.30
2015,06,27,08,03,22.40
2015,06,27,08,04,22.50
2015,06,27,08,05,22.50
2015,06,27,08,06,22.60
2015,06,27,08,07,22.60
2015,06,27,08,08,22.70
2015,06,27,08,09,22.70
2015,06,27,08,10,22.70
2015,06,27,08,11,22.70
2015,06,27,08,12,22.70
2015,06,27,08,13,22.70
2015,06,27,08,14,22.70
2015,06,27,08,15,22.70
2015,06,27,08,16,22.70
2015,06,27,08,17,22.70
2015,06,27,08,18,22.70
2015,06,27,08,19,22.70
2015,06,27,08,20,22.80
2015,06,27,08,21,22.80
2015,06,27,08,22,22.80
2015,06,27,08,23,22.80
2015,06,27,08,24,22.90
2015,06,27,08,25,22.90
2015,06,27,08,26,22.90
2015,06,27,08,27,22.90
2015,06,27,08,28,22.80
2015,06,27,08,29,22.80
2015,06,27,08,30,22.80
2015,06,27,08,31,22.80
2015,06,27,08,32,22.80
2015,06,27,08,33,22.80
2015,06,27,08,34,22.80
2015,06,27,08,35,22.90
2015,06,27,08,36,22.90
2015,06,27,08,37,23.00
2015,06,27,08,38,23.10
2015,06,27,08,39,23.10
2015,06,27,08,40,23.20
2015,06,27,08,41,23.30
2015,06,27,08,42,23.30
2015,06,27,08,43,23.40
2015,06,27,08,44,23.50
2015,06,27,08,45,23.60
2015,06,27,08,46,23.60
2015,06,27,08,47,23.60
2015,06,27,08,48,23.70
2015,06,27,08,49,23.70
2015,06,27,08,50,23.70
2015,06,27,08,51,23.80
2015,06,27,08,52,23.80
2015,06,27,08,53,23.90
2015,06,27,08,54,24.00
2015,06,27,08,55,24.10
2015,06,27,08,56,24.10
2015,06,27,08,57,24.10
2015,06,27,08,58,24.10
2015,06,27,08,59,24.10
2015,06,27,09,00,24.10
2015,06,27,09,01,24.10
2015,06,27,09,02,24.10
2015,06,27,09,03,24.10
2015,06,27,09,04,24.10
2015,06,27,09,05,24.00
2015,06,27,09,06,23.90
2015,06,27,09,07,23.80
2015,06,27,09,08,23.80
2015,06,27,09,09,23.70
2015,06,27,09,10,23.70
2015,06,27,09,11,23.60
2015,06,27,09,12,23.40
2015,06,27,09,13,23.30
2015,06,27,09,14,23.30
2015,06,27,09,15,23.30
2015,06,27,09,16,23.30
2015,06,27,09,17,23.30
2015,06,27,09,18,23.30
2015,06,27,09,19,23.30
2015,06,27,09,20,23.30
2015,06,27,09,21,23.30
2015,06,27,09,22,23.30
2015,06,27,09,23,23.20
2015,06,27,09,24,23.20
2015,06,27,09,25,23.20
2015,06,27,09,26,23.30
2015,06,27,09,27,23.30
2015,06,27,09,28,23.30
2015,06,27,09,29,23.30
2015,06,27,09,30,23.30
2015,06,27,09,31,23.30
2015,06,27,09,32,23.30
2015,06,27,09,33,23.20
2015,06,27,09,34,23.10
2015,06,27,09,35,23.10
2015,06,27,09,36,23.10
2015,06,27,09,37,23.00
2015,06,27,09,38,22.90
2015,06,27,09,39,22.90
2015,06,27,09,40,22.90
2015,06,27,09,41,22.90
2015,06,27,09,42,22.80
2015,06,27,09,43,22.80
2015,06,27,09,44,22.70
2015,06,27,09,45,22.70
2015,06,27,09,46,22.60
2015,06,27,09,47,22.60
2015,06,27,09,48,22.60
2015,06,27,09,49,22.60
2015,06,27,09,50,22.60
2015,06,27,09,51,22.70
2015,06,27,09,52,22.70
2015,06,27,09,53,22.80
2015,06,27,09,54,22.70
2015,06,27,09,55,22.70
2015,06,27,09,56,22.70
2015,06,27,09,57,22.60
2015,06,27,09,58,22.60
2015,06,27,09,59,22.60
2015,06,27,10,00,22.60
2015,06,27,10,01,22.60
2015,06,27,10,02,22.60
2015,06,27,10,03,22.70
2015,06,27,10,04,22.80
2015,06,27,10,05,22.80
2015,06,27,10,06,22.40
2015,06,27,10,07,21.80
2015,06,27,10,08,21.30
2015,06,27,10,09,20.90
2015,06,27,10,10,20.60
2015,06,27,10,11,20.50
2015,06,27,10,12,20.40
2015,06,27,10,13,20.40
2015,06,27,10,14,20.50
2015,06,27,10,15,20.70
2015,06,27,10,16,20.80
2015,06,27,10,17,20.80
2015,06,27,10,18,20.70
2015,06,27,10,19,20.70
2015,06,27,10,20,20.70
2015,06,27,10,21,20.50
2015,06,27,10,22,20.40
2015,06,27,10,23,20.40
2015,06,27,10,24,20.50
2015,06,27,10,25,20.50
2015,06,27,10,26,20.60
2015,06,27,10,27,20.60
2015,06,27,10,28,20.60
2015,06,27,10,29,20.60
2015,06,27,10,30,20.60
2015,06,27,10,31,20.70
2015,06,27,10,32,20.80
2015,06,27,10,33,20.80
2015,06,27,10,34,20.90
2015,06,27,10,35,20.90
2015,06,27,10,36,21.00
2015,06,27,10,37,21.20
2015,06,27,10,38,21.30
2015,06,27,10,39,21.50
2015,06,27,10,40,21.70
2015,06,27,10,41,21.90
2015,06,27,10,42,22.10
2015,06,27,10,43,22.30
2015,06,27,10,44,22.50
2015,06,27,10,45,22.70
2015,06,27,10,46,22.90
2015,06,27,10,47,23.10
2015,06,27,10,48,23.40
2015,06,27,10,49,23.60
2015,06,27,10,50,23.80
2015,06,27,10,51,24.10
2015,06,27,10,52,24.30
2015,06,27,10,53,24.50
2015,06,27,10,54,24.70
2015,06,27,10,55,24.80
2015,06,27,10,56,24.80
2015,06,27,10,57,24.90
2015,06,27,10,58,24.90
2015,06,27,10,59,25.00
2015,06,27,11,00,25.20
2015,06,27,11,01,25.40
2015,06,27,11,02,25.50
2015,06,27,11,03,25.50
2015,06,27,11,04,25.40
2015,06,27,11,05,25.40
2015,06,27,11,06,25.40
2015,06,27,11,07,25.30
2015,06,27,11,08,25.40
2015,06,27,11,09,25.40
2015,06,27,11,10,25.30
2015,06,27,11,11,25.30
2015,06,27,11,12,25.30
2015,06,27,11,13,25.40
2015,06,27,11,14,25.40
2015,06,27,11,15,25.50
2015,06,27,11,16,25.60
2015,06,27,11,17,25.70
2015,06,27,11,18,25.70
2015,06,27,11,19,25.80
2015,06,27,11,20,25.80
2015,06,27,11,21,25.80
2015,06,27,11,22,25.90
2015,06,27,11,23,25.90
2015,06,27,11,24,25.80
2015,06,27,11,25,25.60
2015,06,27,11,26,25.60
2015,06,27,11,27,25.60
2015,06,27,11,28,25.70
2015,06,27,11,29,25.70
2015,06,27,11,30,25.70
2015,06,27,11,31,25.80
2015,06,27,11,32,25.80
2015,06,27,11,33,25.70
2015,06,27,11,34,25.60
2015,06,27,11,35,25.50
2015,06,27,11,36,25.50
2015,06,27,11,37,25.60
2015,06,27,11,38,25.50
2015,06,27,11,39,25.50
2015,06,27,11,40,25.50
2015,06,27,11,41,25.50
2015,06,27,11,42,25.60
2015,06,27,11,43,25.60
2015,06,27,11,44,25.50
2015,06,27,11,45,25.60
2015,06,27,11,46,25.60
2015,06,27,11,47,25.80
2015,06,27,11,48,25.90
2015,06,27,11,49,26.00
2015,06,27,11,50,26.00
2015,06,27,11,51,26.10
2015,06,27,11,52,26.10
2015,06,27,11,53,26.20
2015,06,27,11,54,26.30
2015,06,27,11,55,26.30
2015,06,27,11,56,26.40
2015,06,27,11,57,26.40
2015,06,27,11,58,26.30
2015,06,27,11,59,26.30
2015,06,27,12,00,26.30
2015,06,27,12,01,26.40
2015,06,27,12,02,26.40
2015,06,27,12,03,26.50
2015,06,27,12,04,26.60
2015,06,27,12,05,26.60
2015,06,27,12,06,26.60
2015,06,27,12,07,26.50
2015,06,27,12,08,26.40
2015,06,27,12,09,26.40
2015,06,27,12,10,26.40
2015,06,27,12,11,26.30
2015,06,27,12,12,26.40
2015,06,27,12,13,26.40
2015,06,27,12,14,26.40
2015,06,27,12,15,26.50
2015,06,27,12,16,26.60
2015,06,27,12,17,26.60
2015,06,27,12,18,26.60
2015,06,27,12,19,26.70
2015,06,27,12,20,26.80
2015,06,27,12,21,26.80
2015,06,27,12,22,26.90
2015,06,27,12,23,26.90
2015,06,27,12,24,27.00
2015,06,27,12,25,27.10
2015,06,27,12,26,27.00
2015,06,27,12,27,26.90
2015,06,27,12,28,26.80
2015,06,27,12,29,26.90
2015,06,27,12,30,27.00
2015,06,27,12,31,27.10
2015,06,27,12,32,27.10
2015,06,27,12,33,27.10
2015,06,27,12,34,27.10
2015,06,27,12,35,27.20
2015,06,27,12,36,27.30
2015,06,27,12,37,27.30
2015,06,27,12,38,27.30
2015,06,27,12,39,27.30
2015,06,27,12,40,27.30
2015,06,27,12,41,27.30
2015,06,27,12,42,27.30
2015,06,27,12,43,27.40
2015,06,27,12,44,27.40
2015,06,27,12,45,27.30
2015,06,27,12,46,27.30
2015,06,27,12,47,27.30
2015,06,27,12,48,27.30
2015,06,27,12,49,27.30
2015,06,27,12,50,27.30
2015,06,27,12,51,27.20
2015,06,27,12,52,27.00
2015,06,27,12,53,26.90
2015,06,27,12,54,26.80
2015,06,27,12,55,26.90
2015,06,27,12,56,27.00
2015,06,27,12,57,27.20
2015,06,27,12,58,27.40
2015,06,27,12,59,27.50
2015,06,27,13,00,27.60
2015,06,27,13,01,27.70
2015,06,27,13,02,27.70
2015,06,27,13,03,27.80
2015,06,27,13,04,27.90
2015,06,27,13,05,27.80
2015,06,27,13,06,27.60
2015,06,27,13,07,27.40
2015,06,27,13,08,27.30
2015,06,27,13,09,27.30
2015,06,27,13,10,27.30
2015,06,27,13,11,27.10
2015,06,27,13,12,27.00
2015,06,27,13,13,26.90
2015,06,27,13,14,27.00
2015,06,27,13,15,27.10
2015,06,27,13,16,27.30
2015,06,27,13,17,27.30
2015,06,27,13,18,27.30
2015,06,27,13,19,27.30
2015,06,27,13,20,27.40
2015,06,27,13,21,27.40
2015,06,27,13,22,27.30
2015,06,27,13,23,27.40
2015,06,27,13,24,27.60
2015,06,27,13,25,27.80
2015,06,27,13,26,28.00
2015,06,27,13,27,28.10
2015,06,27,13,28,28.10
2015,06,27,13,29,28.10
2015,06,27,13,30,28.10
2015,06,27,13,31,28.10
2015,06,27,13,32,28.20
2015,06,27,13,33,28.20
2015,06,27,13,34,28.20
2015,06,27,13,35,28.10
2015,06,27,13,36,28.10
2015,06,27,13,37,28.30
2015,06,27,13,38,28.40
2015,06,27,13,39,28.60
2015,06,27,13,40,28.70
2015,06,27,13,41,28.90
2015,06,27,13,42,28.90
2015,06,27,13,43,28.90
2015,06,27,13,44,28.90
2015,06,27,13,45,28.90
2015,06,27,13,46,28.90
2015,06,27,13,47,29.00
2015,06,27,13,48,29.00
2015,06,27,13,49,29.00
2015,06,27,13,50,29.10
2015,06,27,13,51,29.10
2015,06,27,13,52,29.00
2015,06,27,13,53,28.90
2015,06,27,13,54,28.90
2015,06,27,13,55,28.80
2015,06,27,13,56,28.80
2015,06,27,13,57,28.90
2015,06,27,13,58,28.90
2015,06,27,13,59,29.00
2015,06,27,14,00,29.10
2015,06,27,14,01,29.30
2015,06,27,14,02,29.40
2015,06,27,14,03,29.40
2015,06,27,14,04,29.30
2015,06,27,14,05,29.30
2015,06,27,14,06,29.40
2015,06,27,14,07,29.50
2015,06,27,14,08,29.60
2015,06,27,14,09,29.70
2015,06,27,14,10,29.70
2015,06,27,14,11,29.80
2015,06,27,14,12,29.90
2015,06,27,14,13,29.90
2015,06,27,14,14,30.00
2015,06,27,14,15,29.90
2015,06,27,14,16,29.90
2015,06,27,14,17,29.80
2015,06,27,14,18,29.80
2015,06,27,14,19,29.80
2015,06,27,14,20,29.70
2015,06,27,14,21,29.70
2015,06,27,14,22,29.90
2015,06,27,14,23,30.00
2015,06,27,14,24,30.10
2015,06,27,14,25,30.30
2015,06,27,14,26,30.30
2015,06,27,14,27,30.40
2015,06,27,14,28,30.40
2015,06,27,14,29,30.40
2015,06,27,14,30,30.50
2015,06,27,14,31,30.60
2015,06,27,14,32,30.60
2015,06,27,14,33,30.40
2015,06,27,14,34,30.40
2015,06,27,14,35,30.40
2015,06,27,14,36,30.50
2015,06,27,14,37,30.60
2015,06,27,14,38,30.70
2015,06,27,14,39,30.70
2015,06,27,14,40,30.60
2015,06,27,14,41,30.40
2015,06,27,14,42,30.40
2015,06,27,14,43,30.50
2015,06,27,14,44,30.60
2015,06,27,14,45,30.60
2015,06,27,14,46,30.50
2015,06,27,14,47,30.30
2015,06,27,14,48,30.20
2015,06,27,14,49,30.00
2015,06,27,14,50,29.80
2015,06,27,14,51,29.80
2015,06,27,14,52,29.80
2015,06,27,14,53,29.90
2015,06,27,14,54,30.00
2015,06,27,14,55,30.00
2015,06,27,14,56,29.90
2015,06,27,14,57,29.60
2015,06,27,14,58,29.40
2015,06,27,14,59,29.40
2015,06,27,15,00,29.40
2015,06,27,15,01,29.40
2015,06,27,15,02,29.40
2015,06,27,15,03,29.50
2015,06,27,15,04,29.40
2015,06,27,15,05,29.20
2015,06,27,15,06,29.10
2015,06,27,15,07,28.90
2015,06,27,15,08,28.90
2015,06,27,15,09,28.90
2015,06,27,15,10,28.90
2015,06,27,15,11,28.90
2015,06,27,15,12,28.90
2015,06,27,15,13,29.10
2015,06,27,15,14,29.20
2015,06,27,15,15,29.30
2015,06,27,15,16,29.40
2015,06,27,15,17,29.60
2015,06,27,15,18,29.60
2015,06,27,15,19,29.60
2015,06,27,15,20,29.70
2015,06,27,15,21,29.90
2015,06,27,15,22,30.00
2015,06,27,15,23,30.10
2015,06,27,15,24,30.20
2015,06,27,15,25,30.30
2015,06,27,15,26,30.30
2015,06,27,15,27,30.40
2015,06,27,15,28,30.50
2015,06,27,15,29,30.60
2015,06,27,15,30,30.70
2015,06,27,15,31,30.70
2015,06,27,15,32,30.70
2015,06,27,15,33,30.80
2015,06,27,15,34,30.90
2015,06,27,15,35,31.00
2015,06,27,15,36,31.00
2015,06,27,15,37,31.00
2015,06,27,15,38,31.00
2015,06,27,15,39,31.00
2015,06,27,15,40,31.10
2015,06,27,15,41,31.10
2015,06,27,15,42,31.20
2015,06,27,15,43,31.30
2015,06,27,15,44,31.30
2015,06,27,15,45,31.40
2015,06,27,15,46,31.40
2015,06,27,15,47,31.40
2015,06,27,15,48,31.40
2015,06,27,15,49,31.60
2015,06,27,15,50,31.40
2015,06,27,15,51,31.40
2015,06,27,15,52,31.40
2015,06,27,15,53,31.30
2015,06,27,15,54,31.30
2015,06,27,15,55,31.30
2015,06,27,15,56,31.30
2015,06,27,15,57,31.30
2015,06,27,15,58,31.30
2015,06,27,15,59,31.20
2015,06,27,16,00,31.10
2015,06,27,16,01,31.10
2015,06,27,16,02,31.10
2015,06,27,16,03,31.00
2015,06,27,16,04,31.00
2015,06,27,16,05,31.10
2015,06,27,16,06,31.10
2015,06,27,16,07,31.20
2015,06,27,16,08,31.20
2015,06,27,16,09,31.10
2015,06,27,16,10,31.10
2015,06,27,16,11,31.10
2015,06,27,16,12,31.10
2015,06,27,16,13,31.00
2015,06,27,16,14,31.00
2015,06,27,16,15,31.00
2015,06,27,16,16,31.00
2015,06,27,16,17,31.00
2015,06,27,16,18,31.00
2015,06,27,16,19,31.00
2015,06,27,16,20,31.00
2015,06,27,16,21,31.00
2015,06,27,16,22,31.00
2015,06,27,16,23,31.00
2015,06,27,16,24,31.10
2015,06,27,16,25,31.00
2015,06,27,16,26,30.90
2015,06,27,16,27,30.90
2015,06,27,16,28,30.90
2015,06,27,16,29,30.80
2015,06,27,16,30,30.80
2015,06,27,16,31,30.80
2015,06,27,16,32,30.80
2015,06,27,16,33,30.80
2015,06,27,16,34,30.80
2015,06,27,16,35,30.90
2015,06,27,16,36,30.90
2015,06,27,16,37,30.90
2015,06,27,16,38,30.80
2015,06,27,16,39,30.80
2015,06,27,16,40,30.80
2015,06,27,16,41,30.80
2015,06,27,16,42,30.80
2015,06,27,16,43,30.90
2015,06,27,16,44,30.90
2015,06,27,16,45,30.90
2015,06,27,16,46,30.90
2015,06,27,16,47,30.90
2015,06,27,16,48,31.00
2015,06,27,16,49,31.00
2015,06,27,16,50,31.00
2015,06,27,16,51,30.80
2015,06,27,16,52,30.60
2015,06,27,16,53,30.20
2015,06,27,16,54,30.00
2015,06,27,16,55,29.90
2015,06,27,16,56,29.70
2015,06,27,16,57,29.70
2015,06,27,16,58,29.60
2015,06,27,16,59,29.50
2015,06,27,17,00,29.30
2015,06,27,17,01,29.20
2015,06,27,17,02,29.10
2015,06,27,17,03,29.10
2015,06,27,17,04,29.10
2015,06,27,17,05,28.90
2015,06,27,17,06,29.00
2015,06,27,17,07,29.00
2015,06,27,17,08,28.90
2015,06,27,17,09,28.90
2015,06,27,17,10,28.90
2015,06,27,17,11,28.90
2015,06,27,17,12,28.90
2015,06,27,17,13,28.90
2015,06,27,17,14,28.80
2015,06,27,17,15,28.70
2015,06,27,17,16,28.60
2015,06,27,17,17,28.50
2015,06,27,17,18,28.40
2015,06,27,17,19,28.30